AXI752 KSAN-KAPC

Flight info

Callsign AXI752
Flight time 1h 6m
Altitude 43000
Route PADRZ2 OROSZ COREZ RGOOD REBAS1
Aircraft C750/M-SBDE3FGHRWXY/S

Departure

Time 2026-04-26 00:29
Airport San Diego International Airport (KSAN)

Arrival

Time 2026-04-26 01:35
Airport Napa County Airport (KAPC)
Time Latitude Longitude Altitude Speed Heading
2026-04-26 00:14 32.73354 -117.17871 18 ft 0 kts 94°
2026-04-26 00:23 32.73356 -117.17868 19 ft 2 kts 59°
2026-04-26 00:23 32.73364 -117.17870 21 ft 2 kts 340°
2026-04-26 00:24 32.73373 -117.17898 21 ft 5 kts 276°
2026-04-26 00:24 32.73374 -117.17906 19 ft 0 kts 271°
2026-04-26 00:24 32.73374 -117.17908 22 ft 1 kts 270°
2026-04-26 00:24 32.73370 -117.17926 21 ft 4 kts 250°
2026-04-26 00:25 32.73334 -117.17958 20 ft 8 kts 197°
2026-04-26 00:25 32.73276 -117.17978 19 ft 10 kts 195°
2026-04-26 00:25 32.73223 -117.17948 20 ft 10 kts 110°
2026-04-26 00:25 32.73205 -117.17872 20 ft 9 kts 105°
2026-04-26 00:26 32.73186 -117.17790 18 ft 11 kts 106°
2026-04-26 00:26 32.73162 -117.17694 18 ft 13 kts 105°
2026-04-26 00:26 32.73136 -117.17594 20 ft 12 kts 119°
2026-04-26 00:26 32.73106 -117.17562 18 ft 2 kts 145°
2026-04-26 00:27 32.73100 -117.17556 20 ft 0 kts 145°
2026-04-26 00:27 32.73099 -117.17556 18 ft 0 kts 145°
2026-04-26 00:27 32.73097 -117.17554 18 ft 2 kts 145°
2026-04-26 00:28 32.73081 -117.17541 21 ft 6 kts 146°
2026-04-26 00:28 32.73024 -117.17538 19 ft 10 kts 211°
2026-04-26 00:28 32.73025 -117.17602 19 ft 11 kts 285°
2026-04-26 00:28 32.73123 -117.18007 18 ft 106 kts 286°
2026-04-26 00:29 32.73378 -117.19056 298 ft 142 kts 284°
2026-04-26 00:29 32.73675 -117.20259 938 ft 159 kts 288°
2026-04-26 00:29 32.74316 -117.21352 1709 ft 166 kts 306°
2026-04-26 00:29 32.75011 -117.22470 2534 ft 172 kts 300°
2026-04-26 00:30 32.75666 -117.23737 3406 ft 184 kts 298°
2026-04-26 00:30 32.76349 -117.25069 4336 ft 192 kts 299°
2026-04-26 00:30 32.77067 -117.26440 5348 ft 198 kts 300°
2026-04-26 00:30 32.77805 -117.27837 6357 ft 201 kts 299°
2026-04-26 00:31 32.78559 -117.29256 7390 ft 205 kts 299°
2026-04-26 00:31 32.79363 -117.30777 8061 ft 231 kts 298°
2026-04-26 00:31 32.80336 -117.32442 8587 ft 260 kts 303°
2026-04-26 00:31 32.81492 -117.34201 9360 ft 273 kts 302°
2026-04-26 00:32 32.82645 -117.35992 10454 ft 277 kts 301°
2026-04-26 00:32 32.83856 -117.37896 10896 ft 302 kts 301°
2026-04-26 00:32 32.86607 -117.42157 11603 ft 343 kts 302°
2026-04-26 00:33 32.88068 -117.44401 12498 ft 344 kts 301°
2026-04-26 00:33 32.89528 -117.46677 13235 ft 348 kts 300°
2026-04-26 00:33 32.91002 -117.48982 13955 ft 352 kts 300°
2026-04-26 00:33 32.92505 -117.51314 14602 ft 355 kts 300°
2026-04-26 00:34 32.94012 -117.53654 15278 ft 358 kts 300°
2026-04-26 00:34 32.95529 -117.56020 15987 ft 361 kts 299°
2026-04-26 00:34 32.97057 -117.58406 16719 ft 364 kts 299°
2026-04-26 00:34 32.98598 -117.60812 17448 ft 367 kts 299°
2026-04-26 00:35 33.00153 -117.63236 18195 ft 370 kts 298°
2026-04-26 00:35 33.01720 -117.65687 18839 ft 374 kts 298°
2026-04-26 00:35 33.03304 -117.68167 19472 ft 378 kts 298°
2026-04-26 00:35 33.04904 -117.70666 20162 ft 381 kts 298°
2026-04-26 00:36 33.06637 -117.73106 20803 ft 392 kts 305°
2026-04-26 00:36 33.08692 -117.75313 21494 ft 401 kts 310°
2026-04-26 00:36 33.10835 -117.77468 22150 ft 405 kts 310°
2026-04-26 00:36 33.12980 -117.79662 22814 ft 408 kts 309°
2026-04-26 00:37 33.15142 -117.81878 23504 ft 412 kts 309°
2026-04-26 00:37 33.17336 -117.84108 24063 ft 416 kts 309°
2026-04-26 00:37 33.19556 -117.86356 24631 ft 419 kts 310°
2026-04-26 00:37 33.21830 -117.88576 25113 ft 425 kts 311°
2026-04-26 00:38 33.24131 -117.90815 25658 ft 428 kts 310°
2026-04-26 00:38 33.26445 -117.93071 26199 ft 431 kts 310°
2026-04-26 00:38 33.28775 -117.95350 26727 ft 434 kts 310°
2026-04-26 00:38 33.31124 -117.97646 27256 ft 438 kts 310°
2026-04-26 00:39 33.33488 -117.99957 27780 ft 441 kts 310°
2026-04-26 00:39 33.35872 -118.02288 28306 ft 444 kts 310°
2026-04-26 00:39 33.38240 -118.04608 28821 ft 448 kts 310°
2026-04-26 00:39 33.40697 -118.07018 29277 ft 454 kts 310°
2026-04-26 00:40 33.43119 -118.09394 29783 ft 457 kts 310°
2026-04-26 00:40 33.45584 -118.11808 30258 ft 460 kts 310°
2026-04-26 00:40 33.48068 -118.14247 30681 ft 463 kts 310°
2026-04-26 00:40 33.50564 -118.16702 31174 ft 464 kts 310°
2026-04-26 00:41 33.53060 -118.19151 31834 ft 462 kts 310°
2026-04-26 00:41 33.55544 -118.21575 32432 ft 462 kts 311°
2026-04-26 00:41 33.58242 -118.23768 33029 ft 473 kts 319°
2026-04-26 00:41 33.61190 -118.25603 33597 ft 482 kts 325°
2026-04-26 00:42 33.64248 -118.27264 34151 ft 482 kts 325°
2026-04-26 00:42 33.67285 -118.28942 34694 ft 479 kts 324°
2026-04-26 00:42 33.70453 -118.30706 35303 ft 477 kts 325°
2026-04-26 00:42 33.73319 -118.32287 35864 ft 476 kts 325°
2026-04-26 00:43 33.76343 -118.33931 36402 ft 476 kts 327°
2026-04-26 00:43 33.79395 -118.35464 37033 ft 474 kts 327°
2026-04-26 00:43 33.82670 -118.37109 37667 ft 473 kts 327°
2026-04-26 00:43 33.85462 -118.38522 38226 ft 471 kts 327°
2026-04-26 00:44 33.88478 -118.40049 38808 ft 469 kts 328°
2026-04-26 00:44 33.91487 -118.41568 39303 ft 468 kts 328°
2026-04-26 00:44 33.94490 -118.43084 39777 ft 467 kts 327°
2026-04-26 00:44 33.97480 -118.44599 40254 ft 466 kts 327°
2026-04-26 00:45 34.00478 -118.46119 40746 ft 466 kts 328°
2026-04-26 00:45 34.03470 -118.47636 41196 ft 466 kts 328°
2026-04-26 00:45 34.06456 -118.49152 41682 ft 465 kts 328°
2026-04-26 00:45 34.09437 -118.50667 42195 ft 464 kts 328°
2026-04-26 00:46 34.12413 -118.52182 42625 ft 463 kts 328°
2026-04-26 00:46 34.15359 -118.53677 42949 ft 461 kts 328°
2026-04-26 00:46 34.21392 -118.56770 42932 ft 481 kts 328°
2026-04-26 00:47 34.27667 -118.59959 42952 ft 497 kts 329°
2026-04-26 00:47 34.34081 -118.63216 42944 ft 500 kts 329°
2026-04-26 00:48 34.40522 -118.66331 42944 ft 498 kts 330°
2026-04-26 00:48 34.46568 -118.70170 42941 ft 488 kts 321°
2026-04-26 00:49 34.52456 -118.74326 42943 ft 490 kts 322°
2026-04-26 00:49 34.58345 -118.78487 42946 ft 489 kts 321°
2026-04-26 00:50 34.64194 -118.82643 42931 ft 490 kts 322°
2026-04-26 00:50 34.70109 -118.86832 42927 ft 488 kts 322°
2026-04-26 00:51 34.75941 -118.90991 42917 ft 490 kts 322°
2026-04-26 00:51 34.81827 -118.95174 42912 ft 489 kts 322°
2026-04-26 00:52 34.87746 -118.99406 42918 ft 491 kts 322°
2026-04-26 00:52 34.93646 -119.03616 42917 ft 490 kts 322°
2026-04-26 00:53 34.99520 -119.07827 42907 ft 490 kts 322°
2026-04-26 00:53 35.05401 -119.12042 42906 ft 490 kts 322°
2026-04-26 00:54 35.11276 -119.16264 42895 ft 490 kts 322°
2026-04-26 00:54 35.17155 -119.20495 42885 ft 492 kts 322°
2026-04-26 00:55 35.23049 -119.24743 42884 ft 492 kts 322°
2026-04-26 00:55 35.28943 -119.28998 42882 ft 491 kts 323°
2026-04-26 00:56 35.34833 -119.33260 42902 ft 491 kts 323°
2026-04-26 00:56 35.40723 -119.37527 42907 ft 493 kts 323°
2026-04-26 00:57 35.46619 -119.41805 42911 ft 492 kts 323°
2026-04-26 00:57 35.52513 -119.46091 42906 ft 492 kts 323°
2026-04-26 00:58 35.58086 -119.50839 42904 ft 484 kts 314°
2026-04-26 00:58 35.62691 -119.56731 42896 ft 473 kts 301°
2026-04-26 00:59 35.66427 -119.63360 42922 ft 473 kts 300°
2026-04-26 00:59 35.70565 -119.69691 42910 ft 479 kts 307°
2026-04-26 01:00 35.75416 -119.75381 42905 ft 485 kts 315°
2026-04-26 01:00 35.81020 -119.80137 42898 ft 495 kts 326°
2026-04-26 01:01 35.87467 -119.83260 42930 ft 505 kts 337°
2026-04-26 01:01 35.94170 -119.85814 42910 ft 502 kts 334°
2026-04-26 01:02 36.00595 -119.89107 42910 ft 500 kts 332°
2026-04-26 01:02 36.07155 -119.92070 42909 ft 503 kts 335°
2026-04-26 01:03 36.13671 -119.95196 42900 ft 502 kts 333°
2026-04-26 01:03 36.20207 -119.98267 42899 ft 503 kts 334°
2026-04-26 01:04 36.26644 -120.01575 42886 ft 496 kts 326°
2026-04-26 01:04 36.32056 -120.06660 42909 ft 485 kts 311°
2026-04-26 01:05 36.36985 -120.12395 42915 ft 487 kts 312°
2026-04-26 01:05 36.41952 -120.18089 42938 ft 485 kts 312°
2026-04-26 01:06 36.46854 -120.23785 42907 ft 486 kts 312°
2026-04-26 01:06 36.51808 -120.29507 42911 ft 486 kts 312°
2026-04-26 01:07 36.56749 -120.35252 42911 ft 486 kts 312°
2026-04-26 01:07 36.61694 -120.40997 42911 ft 486 kts 312°
2026-04-26 01:08 36.65827 -120.45813 42911 ft 485 kts 312°
2026-04-26 01:08 36.70723 -120.51524 42908 ft 485 kts 312°
2026-04-26 01:09 36.75643 -120.57278 42914 ft 486 kts 312°
2026-04-26 01:09 36.80569 -120.63043 42917 ft 485 kts 312°
2026-04-26 01:10 36.83020 -120.65917 42715 ft 480 kts 312°
2026-04-26 01:10 36.85444 -120.68759 42052 ft 473 kts 312°
2026-04-26 01:10 36.87814 -120.71543 41431 ft 463 kts 312°
2026-04-26 01:10 36.90138 -120.74277 40843 ft 455 kts 312°
2026-04-26 01:11 36.92424 -120.76970 40249 ft 450 kts 312°
2026-04-26 01:11 36.94692 -120.79643 39656 ft 447 kts 312°
2026-04-26 01:11 36.96957 -120.82314 39071 ft 448 kts 312°
2026-04-26 01:11 36.99233 -120.85002 38454 ft 451 kts 312°
2026-04-26 01:12 37.01350 -120.87880 37817 ft 449 kts 303°
2026-04-26 01:12 37.03071 -120.91139 37237 ft 449 kts 297°
2026-04-26 01:12 37.04667 -120.94515 36651 ft 453 kts 297°
2026-04-26 01:12 37.06292 -120.97904 36049 ft 455 kts 298°
2026-04-26 01:13 37.07947 -121.01292 35451 ft 457 kts 298°
2026-04-26 01:13 37.09597 -121.04696 34848 ft 457 kts 298°
2026-04-26 01:13 37.11229 -121.08109 34248 ft 458 kts 298°
2026-04-26 01:13 37.12891 -121.11581 33590 ft 459 kts 298°
2026-04-26 01:14 37.14543 -121.15007 32987 ft 459 kts 298°
2026-04-26 01:14 37.16195 -121.18442 32373 ft 461 kts 298°
2026-04-26 01:14 37.17850 -121.21901 31767 ft 463 kts 299°
2026-04-26 01:14 37.19509 -121.25373 31157 ft 464 kts 300°
2026-04-26 01:15 37.21166 -121.28832 30538 ft 461 kts 300°
2026-04-26 01:15 37.22810 -121.32270 29929 ft 458 kts 301°
2026-04-26 01:15 37.24439 -121.35685 29293 ft 453 kts 301°
2026-04-26 01:15 37.26055 -121.39075 28690 ft 452 kts 301°
2026-04-26 01:16 37.27664 -121.42451 28100 ft 450 kts 300°
2026-04-26 01:16 37.29267 -121.45819 27513 ft 448 kts 300°
2026-04-26 01:16 37.30861 -121.49172 26919 ft 447 kts 300°
2026-04-26 01:16 37.32450 -121.52519 26347 ft 445 kts 300°
2026-04-26 01:17 37.34019 -121.55828 25760 ft 437 kts 301°
2026-04-26 01:17 37.35566 -121.59091 25189 ft 433 kts 301°
2026-04-26 01:17 37.37102 -121.62333 24619 ft 431 kts 300°
2026-04-26 01:17 37.38633 -121.65571 24057 ft 429 kts 300°
2026-04-26 01:18 37.40155 -121.68793 23488 ft 427 kts 300°
2026-04-26 01:18 37.41667 -121.71997 22884 ft 423 kts 300°
2026-04-26 01:18 37.43145 -121.75131 22333 ft 420 kts 300°
2026-04-26 01:18 37.44623 -121.78268 21782 ft 414 kts 301°
2026-04-26 01:19 37.46089 -121.81382 21239 ft 411 kts 302°
2026-04-26 01:19 37.47536 -121.84460 20696 ft 408 kts 303°
2026-04-26 01:19 37.48980 -121.87533 20160 ft 406 kts 302°
2026-04-26 01:19 37.50146 -121.90769 19649 ft 406 kts 290°
2026-04-26 01:20 37.50997 -121.94218 19310 ft 408 kts 288°
2026-04-26 01:20 37.51835 -121.97633 18934 ft 407 kts 289°
2026-04-26 01:20 37.52693 -122.01013 18548 ft 404 kts 289°
2026-04-26 01:20 37.53550 -122.04375 18156 ft 402 kts 289°
2026-04-26 01:21 37.54386 -122.07722 17736 ft 397 kts 289°
2026-04-26 01:21 37.55201 -122.11012 17367 ft 390 kts 290°
2026-04-26 01:21 37.56017 -122.14267 17004 ft 389 kts 290°
2026-04-26 01:21 37.56831 -122.17508 16631 ft 386 kts 290°
2026-04-26 01:22 37.57633 -122.20724 16267 ft 384 kts 289°
2026-04-26 01:22 37.58429 -122.23932 15901 ft 381 kts 289°
2026-04-26 01:22 37.59220 -122.27112 15543 ft 379 kts 289°
2026-04-26 01:22 37.60007 -122.30276 15172 ft 377 kts 289°
2026-04-26 01:23 37.61064 -122.33260 14756 ft 372 kts 305°
2026-04-26 01:23 37.62812 -122.35597 14420 ft 364 kts 323°
2026-04-26 01:23 37.65013 -122.37083 14084 ft 358 kts 341°
2026-04-26 01:23 37.67454 -122.37623 13759 ft 356 kts 358°
2026-04-26 01:24 37.69926 -122.37699 13428 ft 355 kts 359°
2026-04-26 01:24 37.72391 -122.37749 13083 ft 350 kts 359°
2026-04-26 01:24 37.74833 -122.37816 12742 ft 351 kts 359°
2026-04-26 01:24 37.77261 -122.37892 12456 ft 347 kts 359°
2026-04-26 01:25 37.79685 -122.37962 12154 ft 347 kts 359°
2026-04-26 01:25 37.82097 -122.38027 11826 ft 348 kts 359°
2026-04-26 01:25 37.84499 -122.38094 11492 ft 343 kts 359°
2026-04-26 01:25 37.86859 -122.38163 11167 ft 342 kts 359°
2026-04-26 01:26 37.89227 -122.38230 10843 ft 338 kts 359°
2026-04-26 01:26 37.91501 -122.38294 10522 ft 314 kts 358°
2026-04-26 01:26 37.93608 -122.38353 10204 ft 291 kts 358°
2026-04-26 01:26 37.95560 -122.38409 9877 ft 267 kts 358°
2026-04-26 01:27 37.97402 -122.38461 9322 ft 273 kts 358°
2026-04-26 01:27 37.99275 -122.38713 8657 ft 272 kts 346°
2026-04-26 01:27 38.01087 -122.39470 7706 ft 273 kts 339°
2026-04-26 01:27 38.02848 -122.40318 6737 ft 268 kts 338°
2026-04-26 01:28 38.04584 -122.41146 5748 ft 266 kts 337°
2026-04-26 01:28 38.06251 -122.42075 4672 ft 259 kts 323°
2026-04-26 01:28 38.07293 -122.43850 3697 ft 249 kts 287°
2026-04-26 01:28 38.07283 -122.45971 2817 ft 240 kts 251°
2026-04-26 01:29 38.06260 -122.47584 2025 ft 239 kts 213°
2026-04-26 01:29 38.04640 -122.47920 2009 ft 247 kts 178°
2026-04-26 01:29 38.02986 -122.47230 1986 ft 256 kts 150°
2026-04-26 01:29 38.01779 -122.45530 1981 ft 267 kts 119°
2026-04-26 01:30 38.01416 -122.43195 1984 ft 273 kts 86°
2026-04-26 01:30 38.01885 -122.40883 2030 ft 273 kts 71°
2026-04-26 01:30 38.02532 -122.38656 2002 ft 266 kts 65°
2026-04-26 01:30 38.03661 -122.36923 1946 ft 241 kts 34°
2026-04-26 01:31 38.05074 -122.36051 1982 ft 217 kts 17°
2026-04-26 01:31 38.06468 -122.35396 1981 ft 203 kts 17°
2026-04-26 01:31 38.07705 -122.34797 1978 ft 181 kts 17°
2026-04-26 01:31 38.08860 -122.34239 1982 ft 175 kts 16°
2026-04-26 01:32 38.10019 -122.33684 1986 ft 182 kts 16°
2026-04-26 01:32 38.11207 -122.33115 1995 ft 185 kts 16°
2026-04-26 01:32 38.12413 -122.32543 1834 ft 190 kts 16°
2026-04-26 01:32 38.13607 -122.31968 1571 ft 179 kts 16°
2026-04-26 01:33 38.14752 -122.31422 1331 ft 172 kts 16°
2026-04-26 01:33 38.15832 -122.30903 1096 ft 157 kts 15°
2026-04-26 01:33 38.16817 -122.30436 891 ft 150 kts 15°
2026-04-26 01:33 38.17744 -122.29987 696 ft 135 kts 15°
2026-04-26 01:34 38.18594 -122.29577 522 ft 127 kts 12°
2026-04-26 01:34 38.19417 -122.29179 356 ft 126 kts 12°
2026-04-26 01:34 38.20232 -122.28800 180 ft 124 kts 14°
2026-04-26 01:34 38.21022 -122.28419 30 ft 118 kts 13°
2026-04-26 01:35 38.21683 -122.28104 22 ft 74 kts 21°
2026-04-26 01:35 38.21879 -122.27997 22 ft 13 kts 58°
2026-04-26 01:35 38.21860 -122.27879 13 ft 17 kts 110°
2026-04-26 01:35 38.21819 -122.27743 13 ft 12 kts 108°
2026-04-26 01:36 38.21821 -122.27676 14 ft 1 kts 63°
2026-04-26 01:36 38.21821 -122.27675 14 ft 0 kts 63°
2026-04-26 01:37 38.21836 -122.27639 14 ft 8 kts 61°
2026-04-26 01:37 38.21850 -122.27585 15 ft 6 kts 67°
2026-04-26 01:37 38.21866 -122.27544 15 ft 5 kts 62°
2026-04-26 01:38 38.21880 -122.27521 16 ft 2 kts 66°
2026-04-26 01:38 38.21882 -122.27512 16 ft 0 kts 78°
2026-04-26 01:38 38.21863 -122.27494 16 ft 9 kts 145°
2026-04-26 01:38 38.21815 -122.27461 16 ft 7 kts 150°
2026-04-26 01:39 38.21774 -122.27431 16 ft 6 kts 151°
2026-04-26 01:39 38.21738 -122.27403 17 ft 6 kts 146°
2026-04-26 01:39 38.21723 -122.27389 17 ft 0 kts 150°